TimeEDT,TemperatureF,Dew PointF,Humidity,Sea Level PressureIn,VisibilityMPH,Wind Direction,Wind SpeedMPH,Gust SpeedMPH,PrecipitationIn,Events,Conditions,WindDirDegrees,DateUTC
12:17 AM,38.7,32.0,77,30.37,10.0,Calm,Calm,-,N/A,,Clear,0,2013-05-25 04:17:00
12:36 AM,40.1,32.0,73,30.37,10.0,Calm,Calm,-,N/A,,Clear,0,2013-05-25 04:36:00
12:57 AM,38.8,31.1,74,30.36,10.0,Calm,Calm,-,N/A,,Clear,0,2013-05-25 04:57:00
1:17 AM,35.6,30.0,80,30.36,10.0,Calm,Calm,-,N/A,,Clear,0,2013-05-25 05:17:00
1:36 AM,34.9,29.3,80,30.36,10.0,Calm,Calm,-,N/A,,Clear,0,2013-05-25 05:36:00
1:57 AM,37.2,30.6,77,30.36,10.0,Calm,Calm,-,N/A,,Clear,0,2013-05-25 05:57:00
2:17 AM,35.8,29.3,77,30.36,10.0,Calm,Calm,-,N/A,,Clear,0,2013-05-25 06:17:00
2:37 AM,34.2,29.1,82,30.36,10.0,Calm,Calm,-,N/A,,Clear,0,2013-05-25 06:37:00
2:57 AM,35.4,29.8,80,30.36,10.0,Calm,Calm,-,N/A,,Clear,0,2013-05-25 06:57:00
3:16 AM,33.4,28.8,83,30.36,10.0,Calm,Calm,-,N/A,,Clear,0,2013-05-25 07:16:00
3:37 AM,32.0,27.7,84,30.36,10.0,Calm,Calm,-,N/A,,Clear,0,2013-05-25 07:37:00
3:57 AM,32.0,27.7,84,30.36,10.0,Calm,Calm,-,N/A,,Clear,0,2013-05-25 07:57:00
4:16 AM,34.0,28.9,82,30.36,10.0,Calm,Calm,-,N/A,,Clear,0,2013-05-25 08:16:00
4:37 AM,32.2,28.0,85,30.37,10.0,Calm,Calm,-,N/A,,Clear,0,2013-05-25 08:37:00
4:57 AM,30.2,27.0,88,30.38,10.0,Calm,Calm,-,N/A,,Clear,0,2013-05-25 08:57:00
5:17 AM,31.5,28.2,88,30.38,10.0,Calm,Calm,-,N/A,,Clear,0,2013-05-25 09:17:00
5:37 AM,31.3,27.7,87,30.37,10.0,Calm,Calm,-,N/A,,Clear,0,2013-05-25 09:37:00
5:57 AM,32.2,29.7,90,30.37,10.0,Calm,Calm,-,N/A,,Clear,0,2013-05-25 09:57:00
6:50 AM,32.0,28.4,87,30.38,10.0,Calm,Calm,-,N/A,,Clear,0,2013-05-25 10:50:00
7:50 AM,39.2,33.8,81,30.41,10.0,Calm,Calm,-,N/A,,Clear,0,2013-05-25 11:50:00
8:50 AM,50.0,32.0,50,30.43,10.0,Calm,Calm,-,N/A,,Clear,0,2013-05-25 12:50:00
9:55 AM,51.8,30.2,44,30.43,10.0,Calm,Calm,-,N/A,,Clear,0,2013-05-25 13:55:00
10:50 AM,55.4,30.2,38,30.41,10.0,SSW,3.5,-,N/A,,Clear,200,2013-05-25 14:50:00
11:50 AM,57.2,30.2,36,30.39,10.0,Calm,Calm,-,N/A,,Clear,0,2013-05-25 15:50:00
12:50 PM,59.0,30.2,34,30.38,10.0,SSE,6.9,-,N/A,,Clear,160,2013-05-25 16:50:00
1:50 PM,60.8,30.2,31,30.37,10.0,West,4.6,-,N/A,,Partly Cloudy,270,2013-05-25 17:50:00
2:47 PM,62.6,30.2,30,30.37,10.0,Calm,Calm,-,N/A,,Partly Cloudy,0,2013-05-25 18:47:00
3:50 PM,64.4,32.0,30,30.35,10.0,NE,13.8,-,N/A,,Partly Cloudy,50,2013-05-25 19:50:00
4:50 PM,62.6,32.0,32,30.35,10.0,NNE,13.8,19.6,N/A,,Partly Cloudy,20,2013-05-25 20:50:00
5:50 PM,62.6,30.2,30,30.35,10.0,NE,12.7,-,N/A,,Clear,50,2013-05-25 21:50:00
6:50 PM,59.0,28.4,31,30.35,10.0,ENE,12.7,-,N/A,,Clear,70,2013-05-25 22:50:00
7:50 PM,55.4,28.4,36,30.34,10.0,ENE,8.1,-,N/A,,Clear,60,2013-05-25 23:50:00
8:50 PM,53.6,28.4,38,30.34,10.0,NE,4.6,-,N/A,,Clear,50,2013-05-26 00:50:00
9:50 PM,50.0,30.2,47,30.34,10.0,Calm,Calm,-,N/A,,Clear,0,2013-05-26 01:50:00
10:17 PM,50.0,29.7,46,30.34,10.0,Calm,Calm,-,N/A,,Clear,0,2013-05-26 02:17:00
10:36 PM,47.7,30.4,51,30.35,10.0,Calm,Calm,-,N/A,,Clear,0,2013-05-26 02:36:00
10:57 PM,47.5,30.0,51,30.35,10.0,Calm,Calm,-,N/A,,Clear,0,2013-05-26 02:57:00
11:17 PM,44.1,29.8,57,30.35,10.0,Calm,Calm,-,N/A,,Clear,0,2013-05-26 03:17:00
11:36 PM,41.5,30.9,66,30.35,10.0,Calm,Calm,-,N/A,,Clear,0,2013-05-26 03:36:00
11:57 PM,40.6,31.3,69,30.35,10.0,Calm,Calm,-,N/A,,Clear,0,2013-05-26 03:57:00